Ketchikan, AK

3:43 AM AKST on January 21, 2019 (GMT -0900)
Ketchikan International

Weather History for PAKT - November, 2018

Change the Weather History Date:

Wednesday, November 28, 2018

  Actual Average Record
Temperature  
Mean Temperature 45 °F -  
Max Temperature 46 °F 43 °F 54 °F (1979)
Min Temperature 44 °F 32 °F 5 °F (2006)
Degree Days  
Heating Degree Days 20    
Moisture  
Dew Point 44 °F    
Average Humidity 93    
Maximum Humidity 100    
Minimum Humidity 90    
Precipitation  
Precipitation 0.03 in - - ()
Sea Level Pressure  
Sea Level Pressure 29.56 in    
Wind  
Wind Speed 2 mph (SSE)    
Max Wind Speed 8 mph    
Max Gust Speed -    
Visibility 8 miles    
Events Rain    
Averages and records for this station are not official NWS values.
T = Trace of Precipitation, MM = Missing Value Source: NWS Daily Summary

Daily Weather History Graph

Daily Weather History Graph

Search for Another Location

Airport or City:

Astronomy

Nov. 28, 2018 Rise Set
Actual Time 7:45 AM AKST 3:24 PM AKST
Civil Twilight 7:01 AM AKST 4:07 PM AKST
Nautical Twilight 6:14 AM AKST 4:54 PM AKST
Astronomical Twilight 5:30 AM AKST 5:38 PM AKST
Moon 9:47 PM AKST (11/28) 12:33 PM AKST (11/28)
Length of Visible Light 9h 06m
Length of Day
7h 38m
Waning Gibbous, 63% of the Moon is Illuminated
Nov 28
Waning Gibbous
Nov 29
Last Quarter
Dec 6
New
Dec 15
First Quarter
Dec 22
Full

Hourly Weather History & Observations

Time (AKST) Temp. Windchill Dew Point Humidity Pressure Visibility Wind Dir Wind Speed Gust Speed Precip Events Conditions
12:28 AM 45.0 °F - 44.1 °F 97% 29.41 in 9.0 mi Calm Calm - 0.02 in Rain Light Rain
12:53 AM 45.0 °F - 43.0 °F 93% 29.42 in 10.0 mi Calm Calm - 0.02 in Rain Light Rain
1:41 AM 45.0 °F - 43.0 °F 93% 29.43 in 10.0 mi Calm Calm - 0.01 in   Overcast
1:53 AM 45.0 °F - 43.0 °F 93% 29.44 in 10.0 mi Calm Calm - 0.01 in   Overcast
2:53 AM 45.0 °F 43.5 °F 43.0 °F 93% 29.45 in 10.0 mi SSE 3.5 mph - 0.00 in   Overcast
3:53 AM 45.0 °F - 43.0 °F 93% 29.46 in 8.0 mi Calm Calm - N/A   Overcast
4:53 AM 45.0 °F - 43.0 °F 93% 29.47 in 9.0 mi Calm Calm - N/A   Overcast
5:53 AM 45.0 °F 43.5 °F 43.0 °F 93% 29.49 in 10.0 mi SE 3.5 mph - N/A   Overcast
6:51 AM 44.6 °F 43.1 °F 42.8 °F 93% 29.49 in 3.0 mi SSE 3.5 mph - N/A   Overcast
6:53 AM 44.6 °F 43.1 °F 42.8 °F 93% 29.50 in 3.0 mi SSE 3.5 mph - N/A   Overcast
7:25 AM 45.0 °F 42.6 °F 43.0 °F 93% 29.50 in 2.0 mi SSE 4.6 mph - N/A   Overcast
7:53 AM 44.6 °F 43.1 °F 42.8 °F 93% 29.52 in 1.8 mi South 3.5 mph - N/A   Overcast
8:53 AM 44.6 °F 42.2 °F 44.6 °F 100% 29.53 in 1.5 mi SE 4.6 mph - N/A   Overcast
9:53 AM 46.4 °F 43.5 °F 44.6 °F 93% 29.55 in 3.0 mi ESE 5.8 mph - N/A   Overcast
10:53 AM 46.4 °F 43.5 °F 44.6 °F 93% 29.56 in 10.0 mi SE 5.8 mph - N/A Rain Light Rain
11:53 AM 46.4 °F 42.4 °F 44.6 °F 93% 29.57 in 10.0 mi SE 8.1 mph - N/A   Overcast
12:53 PM 46.4 °F 43.5 °F 44.6 °F 93% 29.57 in 10.0 mi SE 5.8 mph - N/A   Mostly Cloudy
1:53 PM 46.4 °F 42.9 °F 44.6 °F 93% 29.59 in 10.0 mi SE 6.9 mph - N/A   Overcast
2:53 PM 46.4 °F 43.5 °F 44.6 °F 93% 29.60 in 10.0 mi ESE 5.8 mph - N/A   Overcast
3:51 PM 46.4 °F 45.2 °F 44.6 °F 93% 29.60 in 10.0 mi South 3.5 mph - N/A   Overcast
3:53 PM 46.4 °F 44.3 °F 44.6 °F 93% 29.61 in 10.0 mi South 4.6 mph - N/A   Overcast
4:51 PM 46.4 °F - 44.6 °F 93% 29.61 in 10.0 mi Calm Calm - N/A   Overcast
4:53 PM 46.4 °F - 44.6 °F 93% 29.62 in 10.0 mi Calm Calm - N/A   Overcast
5:51 PM 44.6 °F 43.1 °F 42.8 °F 93% 29.63 in 10.0 mi South 3.5 mph - N/A   Overcast
5:53 PM 46.0 °F - 44.1 °F 93% 29.63 in 10.0 mi Calm Calm - N/A   Overcast
6:53 PM 44.6 °F - 42.8 °F 93% 29.64 in 10.0 mi Calm Calm - N/A   Overcast
7:51 PM 44.6 °F 43.1 °F 42.8 °F 93% 29.65 in 10.0 mi SSW 3.5 mph - N/A   Overcast
7:53 PM 45.0 °F 43.5 °F 43.0 °F 93% 29.65 in 10.0 mi SSW 3.5 mph - N/A   Overcast
9:01 PM 45.0 °F 43.5 °F 43.0 °F 93% 29.66 in 3.0 mi South 3.5 mph - N/A   Overcast
9:53 PM 44.1 °F 42.5 °F 42.1 °F 93% 29.67 in 10.0 mi SSW 3.5 mph - N/A   Overcast
10:53 PM 45.0 °F 43.5 °F 43.0 °F 93% 29.69 in 10.0 mi ESE 3.5 mph - N/A   Overcast
11:53 PM 45.0 °F - 42.1 °F 90% 29.69 in 10.0 mi Calm Calm - N/A   Overcast